This is the latest recevied weather packets stored in our database for station/object DH1FR-13. If no packets are shown the sender has not sent any weather packets the latest 10 day(s).
| Time | Temp. | Humidity | Pressure | Rain* | Wind** | Luminosity | Snow |
|---|---|---|---|---|---|---|---|
| 1777736401 | 25.56° C | 33% | 1020.4 hPa | 0 mm | 0 m/s | - | - |
| 1777735800 | 25.56° C | 34% | 1020.4 hPa | 0 mm | 0 m/s | - | - |
| 1777735201 | 26.11° C | 32% | 1020.6 hPa | 0 mm | 0 m/s | - | - |
| 1777734601 | 25.56° C | 32% | 1020.8 hPa | 0 mm | 0 m/s | - | - |
| 1777734001 | 25° C | 34% | 1020.8 hPa | 0 mm | 0 m/s | - | - |
| 1777733401 | 25° C | 33% | 1021 hPa | 0 mm | 0 m/s | - | - |
| 1777732801 | 25° C | 33% | 1021.1 hPa | 0 mm | 0 m/s | - | - |
| 1777732201 | 25° C | 30% | 1021 hPa | 0 mm | 0 m/s | - | - |
| 1777731601 | 26.11° C | 31% | 1021.4 hPa | 0 mm | 0 m/s | - | - |
| 1777731001 | 25° C | 32% | 1021.3 hPa | 0 mm | 0 m/s | - | - |
| 1777730400 | 26.11° C | 31% | 1021.4 hPa | 0 mm | 0 m/s | - | - |
| 1777729801 | 25.56° C | 28% | 1021.5 hPa | 0 mm | 0 m/s | - | - |
| 1777729201 | 25.56° C | 30% | 1021.4 hPa | 0 mm | 0 m/s | - | - |
| 1777728601 | 24.44° C | 30% | 1021.7 hPa | 0 mm | 0 m/s | - | - |
| 1777728001 | 25.56° C | 29% | 1021.8 hPa | 0 mm | 0 m/s | - | - |
| 1777727401 | 25.56° C | 31% | 1022.1 hPa | 0 mm | 0 m/s | - | - |
| 1777726801 | 25° C | 30% | 1022 hPa | 0 mm | 0 m/s | - | - |
| 1777725601 | 25.56° C | 30% | 1022.3 hPa | 0 mm | 0 m/s | - | - |
| 1777725001 | 25.56° C | 30% | 1022.3 hPa | 0 mm | 0 m/s | - | - |
| 1777724401 | 25° C | 33% | 1022.6 hPa | 0 mm | 0 m/s | - | - |
| 1777723801 | 25° C | 32% | 1022.6 hPa | 0 mm | 0 m/s | - | - |
| 1777723201 | 24.44° C | 32% | 1022.8 hPa | 0 mm | 0 m/s | - | - |
| 1777722601 | 24.44° C | 34% | 1022.9 hPa | 0 mm | 0 m/s | - | - |
| 1777722001 | 24.44° C | 33% | 1023 hPa | 0 mm | 0 m/s | - | - |
| 1777721401 | 25° C | 34% | 1023.1 hPa | 0 mm | 0 m/s | - | - |
* Rain latest hour (hover to see other rain measurements)
** Current wind speed in m/s (hover to see current wind gust speed)